owner,sensor,date,latitude,longitude,air_temperature,qcFlag 
WAVCIS,ioos:station:WAVCIS:CSI09:1,2012-09-18T09:00:00Z,29.1015,-89.9782,24.94,11111222 
WAVCIS,ioos:station:WAVCIS:CSI09:1,2012-09-18T10:00:00Z,29.1015,-89.9782,24.61,11111222 
WAVCIS,ioos:station:WAVCIS:CSI09:1,2012-09-18T11:00:00Z,29.1015,-89.9782,24.34,11111222 
WAVCIS,ioos:station:WAVCIS:CSI09:1,2012-09-18T12:00:00Z,29.1015,-89.9782,24.53,11111222 
WAVCIS,ioos:station:WAVCIS:CSI09:1,2012-09-18T13:00:00Z,29.1015,-89.9782,24.06,11111222 
WAVCIS,ioos:station:WAVCIS:CSI09:1,2012-09-18T14:00:00Z,29.1015,-89.9782,23.7,11111222 
WAVCIS,ioos:station:WAVCIS:CSI09:1,2012-09-18T15:00:00Z,29.1015,-89.9782,23.46,11111222 
WAVCIS,ioos:station:WAVCIS:CSI09:1,2012-09-18T16:00:00Z,29.1015,-89.9782,23.59,11111222 
WAVCIS,ioos:station:WAVCIS:CSI09:1,2012-09-18T17:00:00Z,29.1015,-89.9782,24.21,11111222 
WAVCIS,ioos:station:WAVCIS:CSI09:1,2012-09-18T18:00:00Z,29.1015,-89.9782,25.14,11111222 
WAVCIS,ioos:station:WAVCIS:CSI09:1,2012-09-18T19:00:00Z,29.1015,-89.9782,25.7,11111222 
WAVCIS,ioos:station:WAVCIS:CSI09:1,2012-09-18T20:00:00Z,29.1015,-89.9782,25.7,11111222 
WAVCIS,ioos:station:WAVCIS:CSI09:1,2012-09-18T21:00:00Z,29.1015,-89.9782,26.06,11111222 
WAVCIS,ioos:station:WAVCIS:CSI09:1,2012-09-18T22:00:00Z,29.1015,-89.9782,26.36,11111222 
WAVCIS,ioos:station:WAVCIS:CSI09:1,2012-09-18T23:00:00Z,29.1015,-89.9782,26.61,11111222 
WAVCIS,ioos:station:WAVCIS:CSI09:1,2012-09-19T00:00:00Z,29.1015,-89.9782,26.51,11111222 
WAVCIS,ioos:station:WAVCIS:CSI09:1,2012-09-19T01:00:00Z,29.1015,-89.9782,26.26,11111222 
WAVCIS,ioos:station:WAVCIS:CSI09:1,2012-09-19T02:00:00Z,29.1015,-89.9782,26.18,11111222 
WAVCIS,ioos:station:WAVCIS:CSI09:1,2012-09-19T03:00:00Z,29.1015,-89.9782,26.11,11111222 
WAVCIS,ioos:station:WAVCIS:CSI09:1,2012-09-19T04:00:00Z,29.1015,-89.9782,26.01,11111222 
WAVCIS,ioos:station:WAVCIS:CSI09:1,2012-09-19T05:00:00Z,29.1015,-89.9782,25.89,11111222 
WAVCIS,ioos:station:WAVCIS:CSI09:1,2012-09-19T06:00:00Z,29.1015,-89.9782,24.93,11111222 
WAVCIS,ioos:station:WAVCIS:CSI09:1,2012-09-19T07:00:00Z,29.1015,-89.9782,23.92,11111222 
WAVCIS,ioos:station:WAVCIS:CSI09:1,2012-09-19T08:00:00Z,29.1015,-89.9782,23.41,11111222 
WAVCIS,ioos:station:WAVCIS:CSI09:1,2012-09-19T09:00:00Z,29.1015,-89.9782,23.04,11111222 
WAVCIS,ioos:station:WAVCIS:CSI09:1,2012-09-19T10:00:00Z,29.1015,-89.9782,22.53,11111222 
WAVCIS,ioos:station:WAVCIS:CSI09:1,2012-09-19T11:00:00Z,29.1015,-89.9782,22.29,11111222 
WAVCIS,ioos:station:WAVCIS:CSI09:1,2012-09-19T12:00:00Z,29.1015,-89.9782,22.09,11111222 
WAVCIS,ioos:station:WAVCIS:CSI09:1,2012-09-19T13:00:00Z,29.1015,-89.9782,21.96,11111222 
WAVCIS,ioos:station:WAVCIS:CSI09:1,2012-09-19T14:00:00Z,29.1015,-89.9782,22.07,11111222 
WAVCIS,ioos:station:WAVCIS:CSI09:1,2012-09-19T15:00:00Z,29.1015,-89.9782,22.53,11111222 
WAVCIS,ioos:station:WAVCIS:CSI09:1,2012-09-19T16:00:00Z,29.1015,-89.9782,23.18,11111222 
WAVCIS,ioos:station:WAVCIS:CSI09:1,2012-09-19T17:00:00Z,29.1015,-89.9782,23.56,11111222 
WAVCIS,ioos:station:WAVCIS:CSI09:1,2012-09-19T18:00:00Z,29.1015,-89.9782,23.75,11111222 
WAVCIS,ioos:station:WAVCIS:CSI09:1,2012-09-19T19:00:00Z,29.1015,-89.9782,24.01,11111222 
WAVCIS,ioos:station:WAVCIS:CSI09:1,2012-09-19T20:00:00Z,29.1015,-89.9782,24.01,11111222 
WAVCIS,ioos:station:WAVCIS:CSI09:1,2012-09-19T21:00:00Z,29.1015,-89.9782,24.11,11111222 
WAVCIS,ioos:station:WAVCIS:CSI09:1,2012-09-19T22:00:00Z,29.1015,-89.9782,24.33,11111222 
WAVCIS,ioos:station:WAVCIS:CSI09:1,2012-09-19T23:00:00Z,29.1015,-89.9782,24.43,11111222 
WAVCIS,ioos:station:WAVCIS:CSI09:1,2012-09-20T00:00:00Z,29.1015,-89.9782,24.12,11111222 
WAVCIS,ioos:station:WAVCIS:CSI09:1,2012-09-20T01:00:00Z,29.1015,-89.9782,23.89,11111222 
WAVCIS,ioos:station:WAVCIS:CSI09:1,2012-09-20T02:00:00Z,29.1015,-89.9782,24.05,11111222 
WAVCIS,ioos:station:WAVCIS:CSI09:1,2012-09-20T03:00:00Z,29.1015,-89.9782,24.33,11111222 
WAVCIS,ioos:station:WAVCIS:CSI09:1,2012-09-20T04:00:00Z,29.1015,-89.9782,24.3,11111222 
WAVCIS,ioos:station:WAVCIS:CSI09:1,2012-09-20T05:00:00Z,29.1015,-89.9782,24.33,11111222 
WAVCIS,ioos:station:WAVCIS:CSI09:1,2012-09-20T06:00:00Z,29.1015,-89.9782,24.22,11111222 
WAVCIS,ioos:station:WAVCIS:CSI09:1,2012-09-20T07:00:00Z,29.1015,-89.9782,24.15,11111222 
WAVCIS,ioos:station:WAVCIS:CSI09:1,2012-09-20T08:00:00Z,29.1015,-89.9782,24.07,11111222 
WAVCIS,ioos:station:WAVCIS:CSI09:1,2012-09-20T09:00:00Z,29.1015,-89.9782,24.05,11111222 
WAVCIS,ioos:station:WAVCIS:CSI09:1,2012-09-20T10:00:00Z,29.1015,-89.9782,24.26,11111222 
WAVCIS,ioos:station:WAVCIS:CSI09:1,2012-09-20T11:00:00Z,29.1015,-89.9782,24.33,11111222 
WAVCIS,ioos:station:WAVCIS:CSI09:1,2012-09-20T12:00:00Z,29.1015,-89.9782,24.44,11111222 
WAVCIS,ioos:station:WAVCIS:CSI09:1,2012-09-20T13:00:00Z,29.1015,-89.9782,24.48,11111222 
WAVCIS,ioos:station:WAVCIS:CSI09:1,2012-09-20T14:00:00Z,29.1015,-89.9782,24.62,11111222 
WAVCIS,ioos:station:WAVCIS:CSI09:1,2012-09-20T15:00:00Z,29.1015,-89.9782,24.6,11111222 
WAVCIS,ioos:station:WAVCIS:CSI09:1,2012-09-20T16:00:00Z,29.1015,-89.9782,24.75,11111222 
WAVCIS,ioos:station:WAVCIS:CSI09:1,2012-09-20T17:00:00Z,29.1015,-89.9782,25.03,11111222 
WAVCIS,ioos:station:WAVCIS:CSI09:1,2012-09-20T18:00:00Z,29.1015,-89.9782,25.07,11111222 
WAVCIS,ioos:station:WAVCIS:CSI09:1,2012-09-20T19:00:00Z,29.1015,-89.9782,25.3,11111222 
WAVCIS,ioos:station:WAVCIS:CSI09:1,2012-09-20T20:00:00Z,29.1015,-89.9782,25.27,11111222 
WAVCIS,ioos:station:WAVCIS:CSI09:1,2012-09-20T21:00:00Z,29.1015,-89.9782,25.24,11111222 
WAVCIS,ioos:station:WAVCIS:CSI09:1,2012-09-20T22:00:00Z,29.1015,-89.9782,25.16,11111222 
WAVCIS,ioos:station:WAVCIS:CSI09:1,2012-09-20T23:00:00Z,29.1015,-89.9782,25.14,11111222 
WAVCIS,ioos:station:WAVCIS:CSI09:1,2012-09-21T00:00:00Z,29.1015,-89.9782,25.05,11111222 
WAVCIS,ioos:station:WAVCIS:CSI09:1,2012-09-21T01:00:00Z,29.1015,-89.9782,24.87,11111222 
WAVCIS,ioos:station:WAVCIS:CSI09:1,2012-09-21T02:00:00Z,29.1015,-89.9782,24.87,11111222 
WAVCIS,ioos:station:WAVCIS:CSI09:1,2012-09-21T03:00:00Z,29.1015,-89.9782,24.87,11111222 
WAVCIS,ioos:station:WAVCIS:CSI09:1,2012-09-21T04:00:00Z,29.1015,-89.9782,24.9,11111222 
WAVCIS,ioos:station:WAVCIS:CSI09:1,2012-09-21T05:00:00Z,29.1015,-89.9782,24.82,11111222 
WAVCIS,ioos:station:WAVCIS:CSI09:1,2012-09-21T06:00:00Z,29.1015,-89.9782,24.83,11111222 
WAVCIS,ioos:station:WAVCIS:CSI09:1,2012-09-21T07:00:00Z,29.1015,-89.9782,24.88,11111222 
WAVCIS,ioos:station:WAVCIS:CSI09:1,2012-09-21T08:00:00Z,29.1015,-89.9782,24.94,11111222 
WAVCIS,ioos:station:WAVCIS:CSI09:1,2012-09-21T09:00:00Z,29.1015,-89.9782,25.07,11111222 
WAVCIS,ioos:station:WAVCIS:CSI09:1,2012-09-21T10:00:00Z,29.1015,-89.9782,25.08,11111222 
WAVCIS,ioos:station:WAVCIS:CSI09:1,2012-09-21T11:00:00Z,29.1015,-89.9782,25.24,11111222 
WAVCIS,ioos:station:WAVCIS:CSI09:1,2012-09-21T12:00:00Z,29.1015,-89.9782,25.33,11111222 
WAVCIS,ioos:station:WAVCIS:CSI09:1,2012-09-21T13:00:00Z,29.1015,-89.9782,25.32,11111222 
WAVCIS,ioos:station:WAVCIS:CSI09:1,2012-09-21T14:00:00Z,29.1015,-89.9782,25.52,11111222 
WAVCIS,ioos:station:WAVCIS:CSI09:1,2012-09-21T15:00:00Z,29.1015,-89.9782,25.59,11111222 
WAVCIS,ioos:station:WAVCIS:CSI09:1,2012-09-21T16:00:00Z,29.1015,-89.9782,25.86,11111222 
WAVCIS,ioos:station:WAVCIS:CSI09:1,2012-09-21T17:00:00Z,29.1015,-89.9782,26.18,11111222 
WAVCIS,ioos:station:WAVCIS:CSI09:1,2012-09-21T18:00:00Z,29.1015,-89.9782,26.06,11111222 
WAVCIS,ioos:station:WAVCIS:CSI09:1,2012-09-21T19:00:00Z,29.1015,-89.9782,26.12,11111222 
WAVCIS,ioos:station:WAVCIS:CSI09:1,2012-09-21T20:00:00Z,29.1015,-89.9782,25.99,11111222 
WAVCIS,ioos:station:WAVCIS:CSI09:1,2012-09-21T21:00:00Z,29.1015,-89.9782,26.14,11111222 
WAVCIS,ioos:station:WAVCIS:CSI09:1,2012-09-21T22:00:00Z,29.1015,-89.9782,25.96,11111222 
WAVCIS,ioos:station:WAVCIS:CSI09:1,2012-09-21T23:00:00Z,29.1015,-89.9782,26.04,11111222 
WAVCIS,ioos:station:WAVCIS:CSI09:1,2012-09-22T00:00:00Z,29.1015,-89.9782,25.86,11111222 
WAVCIS,ioos:station:WAVCIS:CSI09:1,2012-09-22T01:00:00Z,29.1015,-89.9782,25.77,11111222 
WAVCIS,ioos:station:WAVCIS:CSI09:1,2012-09-22T02:00:00Z,29.1015,-89.9782,25.72,11111222 
WAVCIS,ioos:station:WAVCIS:CSI09:1,2012-09-22T03:00:00Z,29.1015,-89.9782,25.69,11111222 
WAVCIS,ioos:station:WAVCIS:CSI09:1,2012-09-22T04:00:00Z,29.1015,-89.9782,25.79,11111222 
WAVCIS,ioos:station:WAVCIS:CSI09:1,2012-09-22T05:00:00Z,29.1015,-89.9782,25.66,11111222 
WAVCIS,ioos:station:WAVCIS:CSI09:1,2012-09-22T06:00:00Z,29.1015,-89.9782,25.7,11111222 
WAVCIS,ioos:station:WAVCIS:CSI09:1,2012-09-22T07:00:00Z,29.1015,-89.9782,25.71,11111222 
WAVCIS,ioos:station:WAVCIS:CSI09:1,2012-09-22T08:00:00Z,29.1015,-89.9782,25.67,11111222 
WAVCIS,ioos:station:WAVCIS:CSI09:1,2012-09-22T09:00:00Z,29.1015,-89.9782,25.78,11111222 
WAVCIS,ioos:station:WAVCIS:CSI09:1,2012-09-22T10:00:00Z,29.1015,-89.9782,25.78,11111222 
WAVCIS,ioos:station:WAVCIS:CSI09:1,2012-09-22T11:00:00Z,29.1015,-89.9782,25.81,11111222 
WAVCIS,ioos:station:WAVCIS:CSI09:1,2012-09-22T12:00:00Z,29.1015,-89.9782,25.68,11111222 
WAVCIS,ioos:station:WAVCIS:CSI09:1,2012-09-22T13:00:00Z,29.1015,-89.9782,26.45,11111222 
WAVCIS,ioos:station:WAVCIS:CSI09:1,2012-09-22T14:00:00Z,29.1015,-89.9782,26.5,11111222 
WAVCIS,ioos:station:WAVCIS:CSI09:1,2012-09-22T15:00:00Z,29.1015,-89.9782,25.94,11111222 
WAVCIS,ioos:station:WAVCIS:CSI09:1,2012-09-22T16:00:00Z,29.1015,-89.9782,25.82,11111222 
WAVCIS,ioos:station:WAVCIS:CSI09:1,2012-09-22T17:00:00Z,29.1015,-89.9782,25.85,11111222 
WAVCIS,ioos:station:WAVCIS:CSI09:1,2012-09-22T18:00:00Z,29.1015,-89.9782,26.25,11111222 
WAVCIS,ioos:station:WAVCIS:CSI09:1,2012-09-22T19:00:00Z,29.1015,-89.9782,26.47,11111222 
WAVCIS,ioos:station:WAVCIS:CSI09:1,2012-09-22T20:00:00Z,29.1015,-89.9782,26.76,11111222 
WAVCIS,ioos:station:WAVCIS:CSI09:1,2012-09-22T21:00:00Z,29.1015,-89.9782,27.06,11111222 
WAVCIS,ioos:station:WAVCIS:CSI09:1,2012-09-22T22:00:00Z,29.1015,-89.9782,27.3,11111222 
WAVCIS,ioos:station:WAVCIS:CSI09:1,2012-09-22T23:00:00Z,29.1015,-89.9782,27.38,11111222 
WAVCIS,ioos:station:WAVCIS:CSI09:1,2012-09-23T00:00:00Z,29.1015,-89.9782,26.75,11111222 
WAVCIS,ioos:station:WAVCIS:CSI09:1,2012-09-23T01:00:00Z,29.1015,-89.9782,26.57,11111222 
WAVCIS,ioos:station:WAVCIS:CSI09:1,2012-09-23T02:00:00Z,29.1015,-89.9782,26.61,11111222 
WAVCIS,ioos:station:WAVCIS:CSI09:1,2012-09-23T03:00:00Z,29.1015,-89.9782,26.6,11111222 
WAVCIS,ioos:station:WAVCIS:CSI09:1,2012-09-23T04:00:00Z,29.1015,-89.9782,26.41,11111222 
WAVCIS,ioos:station:WAVCIS:CSI09:1,2012-09-23T05:00:00Z,29.1015,-89.9782,26.1,11111222 
WAVCIS,ioos:station:WAVCIS:CSI09:1,2012-09-23T06:00:00Z,29.1015,-89.9782,25.86,11111222 
WAVCIS,ioos:station:WAVCIS:CSI09:1,2012-09-23T07:00:00Z,29.1015,-89.9782,25.61,11111222 
WAVCIS,ioos:station:WAVCIS:CSI09:1,2012-09-23T08:00:00Z,29.1015,-89.9782,25.51,11111222 
WAVCIS,ioos:station:WAVCIS:CSI09:1,2012-09-23T09:00:00Z,29.1015,-89.9782,25.69,11111222 
WAVCIS,ioos:station:WAVCIS:CSI09:1,2012-09-23T10:00:00Z,29.1015,-89.9782,25.71,11111222 
WAVCIS,ioos:station:WAVCIS:CSI09:1,2012-09-23T11:00:00Z,29.1015,-89.9782,25.65,11111222 
WAVCIS,ioos:station:WAVCIS:CSI09:1,2012-09-23T12:00:00Z,29.1015,-89.9782,25.35,11111222 
WAVCIS,ioos:station:WAVCIS:CSI09:1,2012-09-23T13:00:00Z,29.1015,-89.9782,25.55,11111222 
WAVCIS,ioos:station:WAVCIS:CSI09:1,2012-09-23T14:00:00Z,29.1015,-89.9782,25.53,11111222 
WAVCIS,ioos:station:WAVCIS:CSI09:1,2012-09-23T15:00:00Z,29.1015,-89.9782,25.81,11111222 
WAVCIS,ioos:station:WAVCIS:CSI09:1,2012-09-23T16:00:00Z,29.1015,-89.9782,26.39,11111222 
WAVCIS,ioos:station:WAVCIS:CSI09:1,2012-09-23T17:00:00Z,29.1015,-89.9782,26.65,11111222 
WAVCIS,ioos:station:WAVCIS:CSI09:1,2012-09-23T18:00:00Z,29.1015,-89.9782,27.04,11111222 
WAVCIS,ioos:station:WAVCIS:CSI09:1,2012-09-23T19:00:00Z,29.1015,-89.9782,27.6,11111222 
WAVCIS,ioos:station:WAVCIS:CSI09:1,2012-09-23T20:00:00Z,29.1015,-89.9782,27.7,11111222 
WAVCIS,ioos:station:WAVCIS:CSI09:1,2012-09-23T21:00:00Z,29.1015,-89.9782,27.91,11111222 
WAVCIS,ioos:station:WAVCIS:CSI09:1,2012-09-23T22:00:00Z,29.1015,-89.9782,28.06,11111222 
WAVCIS,ioos:station:WAVCIS:CSI09:1,2012-09-23T23:00:00Z,29.1015,-89.9782,27.93,11111222 
WAVCIS,ioos:station:WAVCIS:CSI09:1,2012-09-24T00:00:00Z,29.1015,-89.9782,27.55,11111222 
WAVCIS,ioos:station:WAVCIS:CSI09:1,2012-09-24T01:00:00Z,29.1015,-89.9782,27.5,11111222 
WAVCIS,ioos:station:WAVCIS:CSI09:1,2012-09-24T02:00:00Z,29.1015,-89.9782,27.25,11111222 
WAVCIS,ioos:station:WAVCIS:CSI09:1,2012-09-24T03:00:00Z,29.1015,-89.9782,26.82,11111222 
WAVCIS,ioos:station:WAVCIS:CSI09:1,2012-09-24T04:00:00Z,29.1015,-89.9782,26.61,11111222 
WAVCIS,ioos:station:WAVCIS:CSI09:1,2012-09-24T05:00:00Z,29.1015,-89.9782,26.47,11111222 
WAVCIS,ioos:station:WAVCIS:CSI09:1,2012-09-24T06:00:00Z,29.1015,-89.9782,26.49,11111222 
WAVCIS,ioos:station:WAVCIS:CSI09:1,2012-09-24T07:00:00Z,29.1015,-89.9782,26.25,11111222 
WAVCIS,ioos:station:WAVCIS:CSI09:1,2012-09-24T08:00:00Z,29.1015,-89.9782,26.08,11111222 
WAVCIS,ioos:station:WAVCIS:CSI09:1,2012-09-24T09:00:00Z,29.1015,-89.9782,25.98,11111222 
WAVCIS,ioos:station:WAVCIS:CSI09:1,2012-09-24T10:00:00Z,29.1015,-89.9782,25.95,11111222 
WAVCIS,ioos:station:WAVCIS:CSI09:1,2012-09-24T11:00:00Z,29.1015,-89.9782,26.45,11111222 
WAVCIS,ioos:station:WAVCIS:CSI09:1,2012-09-24T12:00:00Z,29.1015,-89.9782,25.84,11111222 
WAVCIS,ioos:station:WAVCIS:CSI09:1,2012-09-24T13:00:00Z,29.1015,-89.9782,26.04,11111222 
WAVCIS,ioos:station:WAVCIS:CSI09:1,2012-09-24T14:00:00Z,29.1015,-89.9782,26.14,11111222 
WAVCIS,ioos:station:WAVCIS:CSI09:1,2012-09-24T15:00:00Z,29.1015,-89.9782,26.02,11111222 
WAVCIS,ioos:station:WAVCIS:CSI09:1,2012-09-24T16:00:00Z,29.1015,-89.9782,26.2,11111222 
WAVCIS,ioos:station:WAVCIS:CSI09:1,2012-09-24T17:00:00Z,29.1015,-89.9782,26.56,11111222 
WAVCIS,ioos:station:WAVCIS:CSI09:1,2012-09-24T18:00:00Z,29.1015,-89.9782,26.96,11111222 
WAVCIS,ioos:station:WAVCIS:CSI09:1,2012-09-24T19:00:00Z,29.1015,-89.9782,27.54,11111222 
WAVCIS,ioos:station:WAVCIS:CSI09:1,2012-09-24T20:00:00Z,29.1015,-89.9782,27.38,11111222 
WAVCIS,ioos:station:WAVCIS:CSI09:1,2012-09-24T21:00:00Z,29.1015,-89.9782,27.46,11111222 
WAVCIS,ioos:station:WAVCIS:CSI09:1,2012-09-24T22:00:00Z,29.1015,-89.9782,27.22,11111222 
WAVCIS,ioos:station:WAVCIS:CSI09:1,2012-09-24T23:00:00Z,29.1015,-89.9782,26.78,11111222 
WAVCIS,ioos:station:WAVCIS:CSI09:1,2012-09-25T00:00:00Z,29.1015,-89.9782,26.87,11111222 
WAVCIS,ioos:station:WAVCIS:CSI09:1,2012-09-25T01:00:00Z,29.1015,-89.9782,26.95,11111222 
WAVCIS,ioos:station:WAVCIS:CSI09:1,2012-09-25T02:00:00Z,29.1015,-89.9782,26.85,11111222 
WAVCIS,ioos:station:WAVCIS:CSI09:1,2012-09-25T03:00:00Z,29.1015,-89.9782,26.55,11111222 
WAVCIS,ioos:station:WAVCIS:CSI09:1,2012-09-25T04:00:00Z,29.1015,-89.9782,26.35,11111222 
WAVCIS,ioos:station:WAVCIS:CSI09:1,2012-09-25T05:00:00Z,29.1015,-89.9782,26.1,11111222 
WAVCIS,ioos:station:WAVCIS:CSI09:1,2012-09-25T06:00:00Z,29.1015,-89.9782,26.11,11111222 
WAVCIS,ioos:station:WAVCIS:CSI09:1,2012-09-25T07:00:00Z,29.1015,-89.9782,26.0,11111222 
WAVCIS,ioos:station:WAVCIS:CSI09:1,2012-09-25T08:00:00Z,29.1015,-89.9782,25.79,11111222 
WAVCIS,ioos:station:WAVCIS:CSI09:1,2012-09-25T09:00:00Z,29.1015,-89.9782,25.69,11111222 
WAVCIS,ioos:station:WAVCIS:CSI09:1,2012-09-25T10:00:00Z,29.1015,-89.9782,25.53,11111222 
WAVCIS,ioos:station:WAVCIS:CSI09:1,2012-09-25T11:00:00Z,29.1015,-89.9782,25.47,11111222 
WAVCIS,ioos:station:WAVCIS:CSI09:1,2012-09-25T12:00:00Z,29.1015,-89.9782,25.39,11111222 
WAVCIS,ioos:station:WAVCIS:CSI09:1,2012-09-25T13:00:00Z,29.1015,-89.9782,26.01,11111222 
WAVCIS,ioos:station:WAVCIS:CSI09:1,2012-09-25T14:00:00Z,29.1015,-89.9782,26.25,11111222 
WAVCIS,ioos:station:WAVCIS:CSI09:1,2012-09-25T15:00:00Z,29.1015,-89.9782,26.29,11111222 
WAVCIS,ioos:station:WAVCIS:CSI09:1,2012-09-25T16:00:00Z,29.1015,-89.9782,26.17,11111222 
WAVCIS,ioos:station:WAVCIS:CSI09:1,2012-09-25T17:00:00Z,29.1015,-89.9782,26.15,11111222 
WAVCIS,ioos:station:WAVCIS:CSI09:1,2012-09-25T18:00:00Z,29.1015,-89.9782,26.15,11111222 
WAVCIS,ioos:station:WAVCIS:CSI09:1,2012-09-25T19:00:00Z,29.1015,-89.9782,26.14,11111222 
WAVCIS,ioos:station:WAVCIS:CSI09:1,2012-09-25T20:00:00Z,29.1015,-89.9782,26.44,11111222 
WAVCIS,ioos:station:WAVCIS:CSI09:1,2012-09-25T21:00:00Z,29.1015,-89.9782,26.43,11111222 
WAVCIS,ioos:station:WAVCIS:CSI09:1,2012-09-25T22:00:00Z,29.1015,-89.9782,26.66,11111222 
WAVCIS,ioos:station:WAVCIS:CSI09:1,2012-09-25T23:00:00Z,29.1015,-89.9782,26.58,11111222 
WAVCIS,ioos:station:WAVCIS:CSI09:1,2012-09-26T00:00:00Z,29.1015,-89.9782,26.08,11111222 
WAVCIS,ioos:station:WAVCIS:CSI09:1,2012-09-26T01:00:00Z,29.1015,-89.9782,25.92,11111222 
WAVCIS,ioos:station:WAVCIS:CSI09:1,2012-09-26T02:00:00Z,29.1015,-89.9782,25.9,11111222 
WAVCIS,ioos:station:WAVCIS:CSI09:1,2012-09-26T03:00:00Z,29.1015,-89.9782,25.92,11111222 
WAVCIS,ioos:station:WAVCIS:CSI09:1,2012-09-26T04:00:00Z,29.1015,-89.9782,25.99,11111222 
WAVCIS,ioos:station:WAVCIS:CSI09:1,2012-09-26T05:00:00Z,29.1015,-89.9782,26.05,11111222 
WAVCIS,ioos:station:WAVCIS:CSI09:1,2012-09-26T06:00:00Z,29.1015,-89.9782,25.94,11111222 
WAVCIS,ioos:station:WAVCIS:CSI09:1,2012-09-26T07:00:00Z,29.1015,-89.9782,26.01,11111222 
WAVCIS,ioos:station:WAVCIS:CSI09:1,2012-09-26T08:00:00Z,29.1015,-89.9782,25.82,11111222 
WAVCIS,ioos:station:WAVCIS:CSI09:1,2012-09-26T09:00:00Z,29.1015,-89.9782,25.85,11111222 
WAVCIS,ioos:station:WAVCIS:CSI09:1,2012-09-26T10:00:00Z,29.1015,-89.9782,25.84,11111222 
WAVCIS,ioos:station:WAVCIS:CSI09:1,2012-09-26T11:00:00Z,29.1015,-89.9782,25.85,11111222 
WAVCIS,ioos:station:WAVCIS:CSI09:1,2012-09-26T12:00:00Z,29.1015,-89.9782,26.11,11111222 
WAVCIS,ioos:station:WAVCIS:CSI09:1,2012-09-26T13:00:00Z,29.1015,-89.9782,26.31,11111222 
WAVCIS,ioos:station:WAVCIS:CSI09:1,2012-09-26T14:00:00Z,29.1015,-89.9782,26.36,11111222 
WAVCIS,ioos:station:WAVCIS:CSI09:1,2012-09-26T15:00:00Z,29.1015,-89.9782,26.67,11111222 
WAVCIS,ioos:station:WAVCIS:CSI09:1,2012-09-26T16:00:00Z,29.1015,-89.9782,26.79,11111222 
WAVCIS,ioos:station:WAVCIS:CSI09:1,2012-09-26T17:00:00Z,29.1015,-89.9782,26.76,11111222 
WAVCIS,ioos:station:WAVCIS:CSI09:1,2012-09-26T18:00:00Z,29.1015,-89.9782,26.64,11111222 
WAVCIS,ioos:station:WAVCIS:CSI09:1,2012-09-26T19:00:00Z,29.1015,-89.9782,26.78,11111222 
WAVCIS,ioos:station:WAVCIS:CSI09:1,2012-09-26T20:00:00Z,29.1015,-89.9782,27.02,11111222 
WAVCIS,ioos:station:WAVCIS:CSI09:1,2012-09-26T21:00:00Z,29.1015,-89.9782,26.98,11111222 
WAVCIS,ioos:station:WAVCIS:CSI09:1,2012-09-26T22:00:00Z,29.1015,-89.9782,17.23,11111222 
WAVCIS,ioos:station:WAVCIS:CSI09:1,2012-09-26T23:00:00Z,29.1015,-89.9782,27.02,11111222 
WAVCIS,ioos:station:WAVCIS:CSI09:1,2012-09-27T00:00:00Z,29.1015,-89.9782,26.54,11111222 
WAVCIS,ioos:station:WAVCIS:CSI09:1,2012-09-27T01:00:00Z,29.1015,-89.9782,26.51,11111222 
WAVCIS,ioos:station:WAVCIS:CSI09:1,2012-09-27T02:00:00Z,29.1015,-89.9782,26.54,11111222 
WAVCIS,ioos:station:WAVCIS:CSI09:1,2012-09-27T03:00:00Z,29.1015,-89.9782,26.48,11111222 
WAVCIS,ioos:station:WAVCIS:CSI09:1,2012-09-27T04:00:00Z,29.1015,-89.9782,26.4,11111222 
WAVCIS,ioos:station:WAVCIS:CSI09:1,2012-09-27T05:00:00Z,29.1015,-89.9782,26.34,11111222 
WAVCIS,ioos:station:WAVCIS:CSI09:1,2012-09-27T06:00:00Z,29.1015,-89.9782,26.12,11111222 
WAVCIS,ioos:station:WAVCIS:CSI09:1,2012-09-27T07:00:00Z,29.1015,-89.9782,26.07,11111222 
WAVCIS,ioos:station:WAVCIS:CSI09:1,2012-09-27T08:00:00Z,29.1015,-89.9782,26.01,11111222 
WAVCIS,ioos:station:WAVCIS:CSI09:1,2012-09-27T09:00:00Z,29.1015,-89.9782,25.81,11111222 
WAVCIS,ioos:station:WAVCIS:CSI09:1,2012-09-27T10:00:00Z,29.1015,-89.9782,25.95,11111222 
WAVCIS,ioos:station:WAVCIS:CSI09:1,2012-09-27T11:00:00Z,29.1015,-89.9782,26.06,11111222 
WAVCIS,ioos:station:WAVCIS:CSI09:1,2012-09-27T12:00:00Z,29.1015,-89.9782,26.09,11111222 
WAVCIS,ioos:station:WAVCIS:CSI09:1,2012-09-27T13:00:00Z,29.1015,-89.9782,26.56,11111222 
WAVCIS,ioos:station:WAVCIS:CSI09:1,2012-09-27T14:00:00Z,29.1015,-89.9782,26.8,11111222 
WAVCIS,ioos:station:WAVCIS:CSI09:1,2012-09-27T15:00:00Z,29.1015,-89.9782,26.88,11111222 
WAVCIS,ioos:station:WAVCIS:CSI09:1,2012-09-27T16:00:00Z,29.1015,-89.9782,26.73,11111222 
WAVCIS,ioos:station:WAVCIS:CSI09:1,2012-09-27T17:00:00Z,29.1015,-89.9782,26.57,11111222 
WAVCIS,ioos:station:WAVCIS:CSI09:1,2012-09-27T18:00:00Z,29.1015,-89.9782,26.29,11111222 
WAVCIS,ioos:station:WAVCIS:CSI09:1,2012-09-27T19:00:00Z,29.1015,-89.9782,26.04,11111222 
WAVCIS,ioos:station:WAVCIS:CSI09:1,2012-09-27T20:00:00Z,29.1015,-89.9782,25.93,11111222 
WAVCIS,ioos:station:WAVCIS:CSI09:1,2012-09-27T21:00:00Z,29.1015,-89.9782,27.0,11111222 
WAVCIS,ioos:station:WAVCIS:CSI09:1,2012-09-27T22:00:00Z,29.1015,-89.9782,26.31,11111222 
WAVCIS,ioos:station:WAVCIS:CSI09:1,2012-09-27T23:00:00Z,29.1015,-89.9782,26.09,11111222 
WAVCIS,ioos:station:WAVCIS:CSI09:1,2012-09-28T00:00:00Z,29.1015,-89.9782,26.21,11111222 
WAVCIS,ioos:station:WAVCIS:CSI09:1,2012-09-28T01:00:00Z,29.1015,-89.9782,25.85,11111222 
WAVCIS,ioos:station:WAVCIS:CSI09:1,2012-09-28T02:00:00Z,29.1015,-89.9782,26.27,11111222 
WAVCIS,ioos:station:WAVCIS:CSI09:1,2012-09-28T03:00:00Z,29.1015,-89.9782,26.17,11111222 
WAVCIS,ioos:station:WAVCIS:CSI09:1,2012-09-28T04:00:00Z,29.1015,-89.9782,26.1,11111222 
WAVCIS,ioos:station:WAVCIS:CSI09:1,2012-09-28T05:00:00Z,29.1015,-89.9782,26.17,11111222 
WAVCIS,ioos:station:WAVCIS:CSI09:1,2012-09-28T06:00:00Z,29.1015,-89.9782,26.13,11111222 
WAVCIS,ioos:station:WAVCIS:CSI09:1,2012-09-28T07:00:00Z,29.1015,-89.9782,26.19,11111222 
WAVCIS,ioos:station:WAVCIS:CSI09:1,2012-09-28T08:00:00Z,29.1015,-89.9782,26.17,11111222 
WAVCIS,ioos:station:WAVCIS:CSI09:1,2012-09-28T09:00:00Z,29.1015,-89.9782,25.94,11111222 
WAVCIS,ioos:station:WAVCIS:CSI09:1,2012-09-28T10:00:00Z,29.1015,-89.9782,26.05,11111222 
WAVCIS,ioos:station:WAVCIS:CSI09:1,2012-09-28T11:00:00Z,29.1015,-89.9782,26.01,11111222 
WAVCIS,ioos:station:WAVCIS:CSI09:1,2012-09-28T12:00:00Z,29.1015,-89.9782,26.12,11111222 
WAVCIS,ioos:station:WAVCIS:CSI09:1,2012-09-28T13:00:00Z,29.1015,-89.9782,26.11,11111222 
WAVCIS,ioos:station:WAVCIS:CSI09:1,2012-09-28T14:00:00Z,29.1015,-89.9782,26.59,11111222 
WAVCIS,ioos:station:WAVCIS:CSI09:1,2012-09-28T15:00:00Z,29.1015,-89.9782,26.78,11111222 
WAVCIS,ioos:station:WAVCIS:CSI09:1,2012-09-28T16:00:00Z,29.1015,-89.9782,26.93,11111222 
WAVCIS,ioos:station:WAVCIS:CSI09:1,2012-09-28T17:00:00Z,29.1015,-89.9782,26.8,11111222 
WAVCIS,ioos:station:WAVCIS:CSI09:1,2012-09-28T18:00:00Z,29.1015,-89.9782,26.83,11111222 
WAVCIS,ioos:station:WAVCIS:CSI09:1,2012-09-28T19:00:00Z,29.1015,-89.9782,26.86,11111222 
WAVCIS,ioos:station:WAVCIS:CSI09:1,2012-09-28T20:00:00Z,29.1015,-89.9782,26.89,11111222 
WAVCIS,ioos:station:WAVCIS:CSI09:1,2012-09-28T21:00:00Z,29.1015,-89.9782,27.2,11111222 
WAVCIS,ioos:station:WAVCIS:CSI09:1,2012-09-28T22:00:00Z,29.1015,-89.9782,27.4,11111222 
WAVCIS,ioos:station:WAVCIS:CSI09:1,2012-09-28T23:00:00Z,29.1015,-89.9782,26.85,11111222 
WAVCIS,ioos:station:WAVCIS:CSI09:1,2012-09-29T00:00:00Z,29.1015,-89.9782,26.77,11111222 
WAVCIS,ioos:station:WAVCIS:CSI09:1,2012-09-29T01:00:00Z,29.1015,-89.9782,26.62,11111222 
WAVCIS,ioos:station:WAVCIS:CSI09:1,2012-09-29T02:00:00Z,29.1015,-89.9782,26.8,11111222 
WAVCIS,ioos:station:WAVCIS:CSI09:1,2012-09-29T03:00:00Z,29.1015,-89.9782,26.75,11111222 
WAVCIS,ioos:station:WAVCIS:CSI09:1,2012-09-29T04:00:00Z,29.1015,-89.9782,26.7,11111222 
WAVCIS,ioos:station:WAVCIS:CSI09:1,2012-09-29T05:00:00Z,29.1015,-89.9782,26.65,11111222 
WAVCIS,ioos:station:WAVCIS:CSI09:1,2012-09-29T06:00:00Z,29.1015,-89.9782,26.38,11111222 
WAVCIS,ioos:station:WAVCIS:CSI09:1,2012-09-29T07:00:00Z,29.1015,-89.9782,26.54,11111222 
WAVCIS,ioos:station:WAVCIS:CSI09:1,2012-09-29T08:00:00Z,29.1015,-89.9782,26.51,11111222 
WAVCIS,ioos:station:WAVCIS:CSI09:1,2012-09-29T09:00:00Z,29.1015,-89.9782,26.33,11111222 
WAVCIS,ioos:station:WAVCIS:CSI09:1,2012-09-29T10:00:00Z,29.1015,-89.9782,26.47,11111222 
WAVCIS,ioos:station:WAVCIS:CSI09:1,2012-09-29T11:00:00Z,29.1015,-89.9782,26.45,11111222 
WAVCIS,ioos:station:WAVCIS:CSI09:1,2012-09-29T12:00:00Z,29.1015,-89.9782,26.41,11111222 
WAVCIS,ioos:station:WAVCIS:CSI09:1,2012-09-29T13:00:00Z,29.1015,-89.9782,26.72,11111222 